EW9273 Weather Reports


Display with metric or nautical units.
time (UTC)temp
F
wind
direction
speed
MPH
gust
MPH
rain 1hr
in
rain 24hr
in
rain mn
in
humidity
%
barometer
mb
20260502170505 68 20 9.0 16.0 0.00 0.12 0.00 48 1021.0
20260502164101 68 31 6.0 14.0 0.00 0.12 0.00 49 1021.2
20260502163558 68 26 5.0 14.0 0.00 0.12 0.00 50 1021.2
20260502163058 68 325 7.0 14.0 0.00 0.12 0.00 48 1021.3
20260502162555 68 339 5.0 13.0 0.00 0.12 0.00 51 1021.2
20260502162054 67 76 6.0 12.0 0.00 0.12 0.00 52 1021.2
20260502161553 67 55 6.0 12.0 0.00 0.12 0.00 51 1021.2
20260502161051 68 25 5.0 12.0 0.00 0.12 0.00 51 1021.2
20260502160549 68 19 5.0 12.0 0.00 0.12 0.00 52 1021.2
20260502152037 64 322 4.0 14.0 0.00 0.15 0.00 58 1020.9
20260502151542 64 343 6.0 16.0 0.00 0.15 0.00 59 1020.8
20260502151034 63 57 5.0 16.0 0.00 0.15 0.00 60 1020.8
20260502150532 63 339 4.0 11.0 0.00 0.15 0.00 62 1020.8
20260502130501 55 329 5.0 13.0 0.00 0.22 0.00 79 1019.4
20260502123557 53 336 5.0 10.0 0.00 0.23 0.00 83 1019.0
20260502123052 52 5 2.0 9.0 0.00 0.23 0.00 83 1018.8
20260502122553 52 355 2.0 11.0 0.00 0.23 0.00 84 1018.6
20260502122051 52 31 3.0 12.0 0.00 0.23 0.00 84 1018.6
20260502121548 51 30 4.0 12.0 0.00 0.23 0.00 84 1018.5
20260502121046 51 21 3.0 10.0 0.00 0.23 0.00 84 1018.5
20260502120546 51 325 4.0 11.0 0.00 0.23 0.00 84 1018.4
20260502115548 51 16 5.0 13.0 0.00 0.61 0.00 84 1018.2
20260502115043 51 55 4.0 12.0 0.00 0.61 0.00 84 1018.2
20260502114558 51 330 4.0 12.0 0.00 0.61 0.00 85 1018.2
20260502114042 51 320 4.0 12.0 0.00 0.61 0.00 85 1018.2
20260502113545 51 23 4.0 12.0 0.00 0.61 0.00 85 1018.1
20260502113043 51 9 3.0 10.0 0.00 0.61 0.00 85 1018.1
20260502112539 51 355 3.0 10.0 0.00 0.61 0.00 85 1018.1
20260502112039 51 42 3.0 10.0 0.00 0.61 0.00 85 1018.1
20260502111538 51 350 1.0 9.0 0.00 0.61 0.00 85 1018.1
20260502111039 51 333 2.0 9.0 0.00 0.61 0.00 85 1018.1
20260502110537 51 346 3.0 8.0 0.00 0.61 0.00 85 1017.9
20260502110039 51 355 2.0 9.0 0.00 0.61 0.00 85 1017.9
20260502105541 51 333 4.0 9.0 0.00 0.99 0.00 85 1017.9
20260502105036 51 294 2.0 8.0 0.00 0.99 0.00 85 1017.9
20260502104546 51 328 2.0 8.0 0.00 0.99 0.00 85 1017.9
20260502104035 51 325 2.0 10.0 0.00 0.99 0.00 85 1017.9
20260502103534 51 355 4.0 10.0 0.00 0.99 0.00 85 1017.8
20260502103035 51 323 2.0 6.0 0.00 0.99 0.00 85 1017.7
20260502102533 51 350 0.0 10.0 0.00 0.99 0.00 85 1017.7
20260502102032 51 338 3.0 10.0 0.00 0.99 0.00 85 1017.8
20260502101547 51 333 2.0 5.0 0.00 0.99 0.00 85 1017.6
20260502101031 51 355 1.0 5.0 0.00 0.99 0.00 85 1017.6
20260502100530 52 360 1.0 8.0 0.00 0.99 0.00 85 1017.5
20260502091525 52 320 0.0 5.0 0.00 1.58 0.00 86 1016.8
20260502091024 52 320 0.0 5.0 0.00 1.58 0.00 86 1016.8
20260502090523 52 342 0.0 4.0 0.00 1.58 0.00 86 1016.7
20260502071510 54 18 2.0 10.0 0.00 1.90 0.00 82 1015.8
20260502071014 54 39 3.0 10.0 0.00 1.90 0.00 82 1016.0
20260502070512 54 44 2.0 8.0 0.00 1.90 0.00 82 1016.1
20260502070011 54 338 2.0 7.0 0.00 1.90 0.00 82 1016.1
20260502065508 54 321 4.0 7.0 0.00 2.02 0.00 82 1016.1
20260502065007 54 5 4.0 11.0 0.00 2.02 0.00 82 1016.1
20260502064507 54 10 3.0 11.0 0.00 2.02 0.00 82 1016.1
20260502064006 54 351 4.0 9.0 0.00 2.02 0.00 81 1016.0
20260502063505 54 10 4.0 10.0 0.00 2.02 0.00 81 1016.0
20260502063005 54 9 3.0 10.0 0.00 2.02 0.00 81 1016.1
20260502062504 54 348 4.0 9.0 0.00 2.02 0.00 81 1016.0
20260502062004 54 351 2.0 10.0 0.00 2.02 0.00 81 1016.0
20260502061503 54 9 3.0 10.0 0.00 2.02 0.00 81 1016.0
20260502061104 54 360 4.0 12.0 0.00 2.02 0.00 81 1016.0
20260502060502 54 46 6.0 13.0 0.00 2.02 0.00 81 1015.9
20260502060008 54 342 4.0 12.0 0.00 2.02 0.00 81 1015.9
20260502055502 54 344 4.0 11.0 0.00 2.49 0.00 81 1015.8
20260502055105 54 339 4.0 13.0 0.00 2.49 0.00 80 1015.9
20260502054602 54 21 3.0 16.0 0.00 2.49 0.00 81 1015.8
20260502054059 54 24 7.0 16.0 0.00 2.49 0.00 80 1015.7
20260502053559 55 325 4.0 15.0 0.00 2.49 0.00 80 1015.3
20260502053057 55 65 7.0 15.0 0.00 2.49 0.00 80 1015.1
20260502052557 55 43 4.0 13.0 0.00 2.49 0.00 80 1015.1
20260502052101 55 11 6.0 13.0 0.00 2.49 0.00 79 1015.4
20260502051620 55 5 6.0 13.0 0.00 2.49 0.00 79 1016.0
20260502051054 55 338 4.0 19.0 0.00 2.49 0.00 79 1016.1
20260502050553 55 49 6.0 19.0 0.00 2.49 0.00 79 1016.0
20260502050052 55 28 6.0 15.0 0.00 2.49 0.00 79 1016.1
20260502045551 55 89 5.0 13.0 0.00 2.49 2.49 80 1016.0
20260502045050 55 331 4.0 12.0 0.00 2.49 2.49 80 1015.9
20260502044550 55 348 5.0 14.0 0.00 2.49 2.49 80 1015.8
20260502044050 55 355 6.0 17.0 0.00 2.49 2.49 80 1015.6
20260502043549 55 36 7.0 17.0 0.00 2.49 2.49 81 1015.6
20260502043051 55 61 5.0 16.0 0.00 2.49 2.49 81 1015.6
20260502042548 55 12 4.0 16.0 0.00 2.49 2.49 81 1015.7
20260502042047 55 50 6.0 16.0 0.00 2.49 2.49 81 1015.8
20260502041547 55 5 7.0 16.0 0.00 2.49 2.49 81 1015.8
20260502041047 55 330 4.0 14.0 0.00 2.49 2.49 81 1015.7
20260502040545 55 55 6.0 14.0 0.00 2.49 2.49 81 1015.7
20260502040054 55 315 3.0 14.0 0.00 2.49 2.49 81 1015.7
20260502035545 55 9 7.0 14.0 0.00 2.50 2.49 81 1015.6
20260502035045 55 350 4.0 13.0 0.00 2.50 2.49 81 1015.7
20260502034544 55 19 5.0 13.0 0.00 2.50 2.49 82 1015.6
20260502034046 55 40 6.0 15.0 0.00 2.50 2.49 82 1015.5
20260502033542 55 13 6.0 15.0 0.00 2.50 2.49 83 1015.4
20260502033043 55 49 8.0 15.0 0.00 2.50 2.49 83 1015.4
20260502032540 55 341 5.0 14.0 0.00 2.50 2.49 84 1015.4
20260502032039 55 9 6.0 17.0 0.00 2.50 2.49 84 1015.3
20260502031540 55 73 5.0 17.0 0.00 2.50 2.49 84 1015.2
20260502031038 55 341 6.0 13.0 0.00 2.50 2.49 84 1015.0
20260502030536 55 31 5.0 13.0 0.00 2.50 2.49 84 1014.9
20260502030036 55 27 5.0 13.0 0.00 2.50 2.49 83 1014.8
20260502025534 55 78 5.0 14.0 0.00 2.50 2.49 84 1014.7
20260502025033 56 11 7.0 18.0 0.00 2.50 2.49 84 1014.7
20260502024537 56 5 7.0 18.0 0.00 2.50 2.49 84 1014.6
20260502024032 56 5 5.0 12.0 0.00 2.50 2.49 84 1014.4
20260502023530 56 340 4.0 16.0 0.00 2.50 2.49 84 1014.3
20260502023029 56 5 6.0 16.0 0.00 2.50 2.49 85 1014.2
20260502022526 57 337 5.0 16.0 0.00 2.50 2.49 85 1013.9
20260502022026 57 344 6.0 17.0 0.00 2.50 2.49 86 1013.8
20260502021525 57 336 5.0 13.0 0.00 2.50 2.49 85 1013.8
20260502021025 57 40 4.0 13.0 0.00 2.50 2.49 85 1013.7
20260502020523 57 360 5.0 14.0 0.00 2.50 2.49 85 1013.7
20260502020023 57 333 5.0 17.0 0.00 2.50 2.49 85 1013.6
20260502015522 57 331 5.0 17.0 0.00 2.50 2.49 84 1013.5
20260502015021 57 37 4.0 20.0 0.00 2.50 2.49 84 1013.4
20260502014521 57 313 7.0 21.0 0.00 2.50 2.49 84 1013.3
20260502014019 57 326 9.0 21.0 0.00 2.50 2.49 84 1013.1
20260502013518 58 55 9.0 19.0 0.00 2.50 2.49 83 1013.1
20260502013017 58 43 6.0 19.0 0.00 2.50 2.49 83 1013.0
20260502012516 58 350 6.0 18.0 0.00 2.50 2.49 83 1012.9
20260502012015 58 49 8.0 18.0 0.00 2.50 2.49 83 1012.7
20260502011522 58 355 5.0 16.0 0.00 2.50 2.49 83 1012.7
20260502011013 58 65 7.0 17.0 0.00 2.50 2.49 83 1012.7
20260502010512 58 350 5.0 17.0 0.00 2.50 2.49 83 1012.8
20260502010014 58 94 5.0 22.0 0.00 2.50 2.49 83 1012.6
20260502005510 58 77 5.0 22.0 0.00 2.50 2.49 84 1012.4
20260502005009 59 336 4.0 17.0 0.00 2.50 2.49 84 1012.2
20260502004509 59 15 6.0 17.0 0.00 2.50 2.49 84 1012.2
20260502004009 59 39 5.0 15.0 0.00 2.50 2.49 83 1012.2
20260502003507 59 51 6.0 17.0 0.00 2.50 2.49 83 1012.1
20260502003006 59 5 8.0 17.0 0.00 2.50 2.49 83 1012.0
20260502002505 59 36 6.0 19.0 0.00 2.50 2.49 83 1011.9
20260502002005 59 360 7.0 19.0 0.00 2.50 2.49 83 1011.8
20260502001505 59 13 4.0 17.0 0.00 2.50 2.49 83 1011.6
20260502001004 60 21 6.0 18.0 0.00 2.50 2.49 83 1011.5
20260502000503 60 65 9.0 27.0 0.00 2.50 2.49 82 1011.5
20260502000003 60 305 8.0 27.0 0.00 2.50 2.49 83 1011.4
20260501235502 60 5 9.0 22.0 0.00 2.50 2.49 83 1011.3
20260501235002 60 33 9.0 22.0 0.00 2.50 2.49 83 1011.4
20260501234502 60 30 5.0 14.0 0.00 2.50 2.49 83 1011.2
20260501234002 60 31 5.0 14.0 0.00 2.50 2.49 83 1011.1
20260501233502 60 342 7.0 20.0 0.00 2.50 2.49 83 1010.9
20260501233104 60 327 9.0 20.0 0.00 2.50 2.49 83 1010.7
20260501232603 61 39 7.0 16.0 0.00 2.50 2.49 83 1010.7
20260501232100 61 49 8.0 16.0 0.00 2.50 2.49 83 1010.5
20260501231600 62 14 5.0 18.0 0.00 2.50 2.49 83 1010.3
20260501231100 61 338 9.0 18.0 0.00 2.50 2.49 83 1010.5
20260501230600 61 53 9.0 17.0 0.00 2.50 2.49 83 1010.1
20260501225600 62 336 8.0 16.0 0.00 2.50 2.49 84 1010.3
20260501225059 62 350 6.0 21.0 0.00 2.50 2.49 84 1010.2
20260501224559 62 22 10.0 21.0 0.00 2.50 2.49 84 1010.3
20260501224059 62 360 7.0 16.0 0.00 2.50 2.49 85 1010.2
20260501223600 61 5 8.0 18.0 0.00 2.50 2.49 86 1010.2
20260501223058 61 5 6.0 15.0 0.00 2.50 2.49 86 1010.4
20260501222601 61 355 5.0 15.0 0.00 2.50 2.49 86 1010.4
20260501222058 61 315 7.0 18.0 0.00 2.50 2.49 86 1010.4
20260501221558 61 76 8.0 22.0 0.00 2.50 2.49 85 1010.2
20260501221057 61 351 8.0 22.0 0.00 2.50 2.49 85 1010.1
20260501220557 62 18 9.0 20.0 0.00 2.50 2.49 85 1010.0
20260501220136 62 345 5.0 12.0 0.00 2.50 2.49 86 1009.8
20260501215557 62 348 4.0 21.0 0.00 2.50 2.49 86 1009.6
20260501215057 62 336 6.0 21.0 0.00 2.50 2.49 86 1009.5
20260501214557 62 355 8.0 16.0 0.00 2.50 2.49 86 1009.3
20260501214056 62 306 6.0 16.0 0.00 2.50 2.49 87 1009.3
20260501213556 62 308 7.0 21.0 0.00 2.50 2.49 87 1009.4
20260501213103 62 309 8.0 16.0 0.00 2.50 2.49 87 1009.4
20260501212555 62 284 7.0 18.0 0.00 2.50 2.49 88 1009.5
20260501212057 62 337 9.0 18.0 0.00 2.50 2.49 88 1009.5
20260501211555 62 338 7.0 17.0 0.00 2.50 2.49 88 1009.6
20260501211054 62 309 8.0 17.0 0.00 2.50 2.49 88 1009.9
20260501210555 62 304 5.0 17.0 0.00 2.50 2.49 88 1009.5
20260501210110 62 321 6.0 23.0 0.00 2.50 2.49 87 1009.3
20260501205555 62 327 8.0 23.0 0.00 2.50 2.49 87 1009.3
20260501205055 62 321 9.0 19.0 0.00 2.50 2.49 87 1009.2
20260501204557 63 337 8.0 19.0 0.00 2.50 2.49 86 1009.3
20260501204053 63 360 6.0 15.0 0.00 2.50 2.49 86 1009.3
20260501203553 64 355 5.0 15.0 0.00 2.50 2.49 86 1009.1
20260501203054 64 355 4.0 15.0 0.00 2.50 2.49 86 1009.0
20260501202553 64 20 5.0 14.0 0.00 2.50 2.49 87 1008.7
20260501202052 64 347 4.0 11.0 0.00 2.50 2.49 87 1009.1
20260501201557 64 317 6.0 14.0 0.00 2.50 2.49 87 1008.7
20260501201052 64 37 5.0 14.0 0.00 2.50 2.49 87 1008.4
20260501200552 65 346 5.0 17.0 0.00 2.50 2.49 88 1008.2
20260501200052 65 350 6.0 17.0 0.00 2.50 2.49 88 1008.3
20260501195552 65 360 6.0 13.0 0.00 2.50 2.49 89 1007.8
20260501195052 65 43 5.0 15.0 0.00 2.50 2.49 90 1007.6
20260501194552 65 342 4.0 15.0 0.00 2.50 2.49 91 1007.9
20260501194052 64 30 5.0 16.0 0.01 2.50 2.49 92 1007.8
20260501193551 64 46 7.0 16.0 0.02 2.50 2.49 92 1007.7
20260501193051 64 15 7.0 15.0 0.02 2.50 2.49 93 1007.9
20260501192550 63 40 6.0 14.0 0.02 2.50 2.49 93 1008.1
20260501192050 64 5 5.0 13.0 0.02 2.50 2.49 94 1008.2
20260501191557 64 36 4.0 19.0 0.02 2.50 2.49 95 1008.2
20260501191050 63 360 6.0 21.0 0.02 2.50 2.49 95 1008.1
20260501190549 63 53 6.0 19.0 0.02 2.50 2.49 95 1008.3
20260501190101 63 345 8.0 19.0 0.02 2.50 2.49 95 1008.6
20260501185549 63 13 5.0 17.0 0.02 2.50 2.49 95 1008.8
20260501185052 63 277 6.0 17.0 0.02 2.50 2.49 95 1009.1
20260501184548 62 326 5.0 14.0 0.02 2.50 2.49 95 1008.9
20260501184051 61 309 4.0 11.0 0.02 2.49 2.48 95 1009.8
20260501183549 61 324 3.0 13.0 0.03 2.48 2.47 95 1009.9
20260501183058 61 9 3.0 13.0 0.09 2.48 2.47 95 1009.6
20260501182548 61 360 4.0 13.0 0.10 2.48 2.47 95 1009.1
20260501182047 61 338 6.0 14.0 0.10 2.48 2.47 95 1009.0
20260501181602 61 333 5.0 16.0 0.10 2.48 2.47 94 1008.7
20260501181048 61 332 6.0 12.0 0.10 2.48 2.47 94 1009.1
20260501180548 62 338 2.0 13.0 0.10 2.48 2.47 94 1009.4
20260501180047 62 317 3.0 15.0 0.10 2.48 2.47 95 1009.4
20260501175550 62 327 6.0 16.0 0.10 2.48 2.47 94 1009.3
20260501175049 62 61 8.0 16.0 0.10 2.48 2.47 94 1009.2
20260501174546 62 336 8.0 17.0 0.10 2.48 2.47 94 1009.8